Voltar ao catálogo

CZ-6A DEB

AtivoPO
NORAD 61166·DEBRIS·🇨🇳 China

Lançado Aug 6, 2024 de Taiyuan Satellite Launch Center

Loading…

Próximas Passagens (próximas 24 horas)

TLE

AtualizadoSource: Space-Track

Época: Sep 14, 2026, 10:44 UTC

1 61166U 24140RL  26257.44755091  .00009833  00000-0  11529-2 0  9991
2 61166  88.9640 254.4320 0064275 253.3460 106.0702 14.83408786109997

Acompanhe CZ-6A DEB em tempo real com AllMySat

Download on the App Store